Weather History for Chattanooga, TN

Change the Weather History Date:

Thursday, December 6, 2012

  Actual Average Record
Temperature  
Mean Temperature 55 °F 44 °F  
Max Temperature 64 °F 54 °F 77 °F (1998)
Min Temperature 45 °F 35 °F 13 °F (1937)
Degree Days  
Heating Degree Days 10 21  
Month to date heating degree days 51 119  
Since 1 July heating degree days 674 708  
Cooling Degree Days 0 0  
Month to date cooling degree days 0 0  
Year to date cooling degree days 2025 1741  
Growing Degree Days 6 (Base 50)    
Moisture  
Dew Point 42 °F    
Average Humidity 69    
Maximum Humidity 86    
Minimum Humidity 52    
Precipitation  
Precipitation T in 0.17 in 3.69 in (2004)
Month to date precipitation 0.26 1.06  
Year to date precipitation 45.47 48.64  
Snow  
Snow 0.00 in 0.00 in - ()
Month to date snowfall 0.0 0.0  
Since 1 July snowfall 0.0 T  
Snow Depth 0.00 in    
Sea Level Pressure  
Sea Level Pressure 30.13 in    
Wind  
Wind Speed 3 mph (ENE)    
Max Wind Speed 10 mph    
Max Gust Speed 15 mph    
Visibility 10 miles    
Events      
T = Trace of Precipitation, MM = Missing Value Source: NWS Daily Summary

Daily Weather History Graph

Daily Weather History Graph

Search for Another Location

Airport:

Trip Planner

Search our weather history database for the weather conditions in past years. The results will help you decide how hot, cold, wet, or windy it might be!

Date:

Astronomy

Dec. 06, 2012 Rise Set
Actual Time 7:35 AM EST 5:28 PM EST
Civil Twilight 7:07 AM EST 5:56 PM EST
Nautical Twilight 6:35 AM EST 6:28 PM EST
Astronomical Twilight 6:05 AM EST 6:59 PM EST
Moon 12:06 AM EST (12/6) 12:40 PM EST (12/6)
Length of Visible Light 10h 49m
Length of Day
9h 53m
Waning Gibbous, 49% of the Moon is Illuminated
Dec 6
Waning Gibbous
Dec 13
New
Dec 20
First Quarter
Dec 28
Full
Jan 4
Last Quarter

Hourly Weather History & Observations

Time (EST) Temp. Dew Point Humidity Pressure Visibility Wind Dir Wind Speed Gust Speed Precip Events Conditions
12:53 AM 53.1 °F 39.0 °F 59% 30.14 in 10.0 mi NE 3.5 mph - N/A   Mostly Cloudy
1:53 AM 52.0 °F 36.0 °F 54% 30.14 in 10.0 mi NNE 5.8 mph - N/A   Overcast
2:53 AM 52.0 °F 37.9 °F 59% 30.15 in 10.0 mi NNE 5.8 mph - 0.00 in   Overcast
3:53 AM 52.0 °F 37.0 °F 57% 30.14 in 10.0 mi NNE 4.6 mph - N/A   Overcast
4:53 AM 51.1 °F 37.0 °F 59% 30.14 in 10.0 mi NNE 5.8 mph - N/A   Overcast
5:53 AM 51.1 °F 37.9 °F 61% 30.14 in 10.0 mi NE 4.6 mph - N/A   Overcast
6:53 AM 51.1 °F 39.0 °F 63% 30.16 in 10.0 mi NNE 4.6 mph - N/A   Overcast
7:53 AM 51.1 °F 39.0 °F 63% 30.17 in 10.0 mi ENE 3.5 mph - N/A   Overcast
8:53 AM 52.0 °F 39.0 °F 61% 30.17 in 10.0 mi NE 4.6 mph - N/A   Mostly Cloudy
9:53 AM 53.1 °F 39.9 °F 61% 30.18 in 10.0 mi Calm Calm - N/A   Mostly Cloudy
10:53 AM 54.0 °F 41.0 °F 62% 30.18 in 10.0 mi Calm Calm - N/A   Overcast
11:53 AM 55.9 °F 42.1 °F 60% 30.15 in 10.0 mi Calm Calm - N/A   Overcast
12:53 PM 57.0 °F 43.0 °F 59% 30.13 in 10.0 mi SSE 3.5 mph - N/A   Overcast
1:53 PM 60.1 °F 44.1 °F 55% 30.10 in 10.0 mi Calm Calm - N/A   Overcast
2:53 PM 62.1 °F 44.1 °F 52% 30.09 in 10.0 mi Calm Calm - N/A   Mostly Cloudy
3:53 PM 63.0 °F 45.0 °F 52% 30.09 in 10.0 mi SE 9.2 mph - N/A   Mostly Cloudy
4:53 PM 61.0 °F 44.1 °F 54% 30.08 in 10.0 mi SE 4.6 mph - N/A   Mostly Cloudy
5:53 PM 59.0 °F 44.1 °F 58% 30.08 in 10.0 mi SSE 3.5 mph - N/A   Mostly Cloudy
6:53 PM 57.0 °F 45.0 °F 64% 30.09 in 10.0 mi Calm Calm - N/A   Mostly Cloudy
7:53 PM 52.0 °F 45.0 °F 77% 30.11 in 10.0 mi Calm Calm - N/A   Scattered Clouds
8:53 PM 51.1 °F 45.0 °F 80% 30.11 in 10.0 mi Calm Calm - N/A   Scattered Clouds
9:53 PM 51.1 °F 44.1 °F 77% 30.11 in 10.0 mi Calm Calm - N/A   Scattered Clouds
10:53 PM 48.0 °F 44.1 °F 86% 30.11 in 10.0 mi Calm Calm - N/A   Scattered Clouds
11:53 PM 46.9 °F 44.1 °F 90% 30.10 in 10.0 mi Calm Calm - N/A   Mostly Cloudy